Home   Weather   Dover   Past weeks
Flag for USA

Past Weather in Dover, Delaware, USA — Yesterday and Last 2 Weeks

Now
40 °F

Mostly cloudy.


Feels Like: 30 °F
Forecast: 48 / 34 °F
Wind: 22 mph from North

Location: Dover Air Force Base

Current Time: Mar 26, 2019 at 5:43:10 am

Latest Report: Mar 26, 2019 at 4:56 am


Visibility: 10 mi

Pressure: 30.10 "Hg

Humidity: 41%

Dew Point: 18 °F

Location of DoverLocation

Past Weather in Dover — Graph

°F

Dover Temperature Yesterday

Maximum temperature yesterday: 59 °F (at 11:56 am)
Minimum temperature yesterday: 42 °F (at 11:56 pm)
Average temperature yesterday: 49 °F

High & Low Weather Summary for the Past Weeks

 TemperatureHumidityPressure
High75 °F (Mar 15, 3:56 pm)100% (Mar 21, 3:19 am)30.47 "Hg (Mar 21, 3:19 am)
Low29 °F (Mar 19, 6:56 am)17% (Mar 24, 2:56 pm)29.34 "Hg (Mar 22, 2:00 am)
Average46 °F61%30.08 "Hg
* Reported Mar 11 3:56 am — Mar 26 3:56 am, Dover. Weather by CustomWeather, © 2019

Note: Actual official high and low records may vary slightly from our data, if they occured in-between our weather recording intervals... More about our weather records

Advertising

Dover Weather History for the Previous 24 Hours

Scroll right to see more
 ConditionsComfort  
Time TempWeatherWind HumidityBarometerVisibility
3:56 am
Tue, Mar 26
42 °FOvercast.17 mph65%30.09 "Hg10 mi
2:56 am42 °FOvercast.12 mph73%30.08 "Hg10 mi
1:56 am42 °FMostly cloudy.9 mph75%30.09 "Hg10 mi
12:56 am42 °FMostly cloudy.10 mph78%30.09 "Hg10 mi
12:26 am43 °FOvercast.14 mph76%30.09 "Hg10 mi
12:06 am43 °FOvercast.13 mph76%30.09 "Hg10 mi
11:56 pm
Mon, Mar 25
42 °FOvercast.9 mph79%30.09 "Hg10 mi
10:56 pm43 °FOvercast.12 mph83%30.08 "Hg10 mi
9:56 pm44 °FOvercast.12 mph82%30.08 "Hg10 mi
8:56 pm45 °FPassing clouds.12 mph84%30.07 "Hg10 mi
7:56 pm46 °FPassing clouds.8 mph80%30.05 "Hg10 mi
6:57 pm48 °FSunny.15 mph76%30.03 "Hg10 mi
6:36 pm50 °FPassing clouds.13 mph67%30.02 "Hg10 mi
5:56 pm51 °FPassing clouds.10 mph64%30.02 "Hg10 mi
4:56 pm53 °FPassing clouds.9 mph48%30.03 "Hg10 mi
3:56 pm55 °FSunny.10 mph47%30.01 "Hg10 mi
2:56 pm58 °FOvercast.7 mph40%30.02 "Hg10 mi
1:56 pm58 °FPartly sunny.3 mph40%30.04 "Hg10 mi
11:56 am59 °FSunny.12 mph40%30.04 "Hg10 mi
9:56 am53 °FPartly sunny.No wind55%30.05 "Hg10 mi
8:56 am50 °FOvercast.No wind65%30.04 "Hg10 mi
6:56 am45 °FPartly cloudy.No wind75%30.02 "Hg10 mi
5:56 am47 °FOvercast.No wind68%30.04 "Hg10 mi
Weather by CustomWeather, © 2019

See weather overview